When you browse on this site, cookies collect data to enhance your experience and personalize the content and advertising you see.
Visit our Privacy Policy to learn more. By continuing to use the site, you agree to this use of cookies and data.
  • In United Kingdom
  • List of Countries
  • For 7 days
  • Water Temperature
  • Satellite Maps
  • Weather Map
  • Weather Widgets
  • user-avatar
    Login

    Hourly Weather Solovi

    Today, 17 November, Saturday

    Time Temperature Precipitation Wind Pressure Humidity
    00:00 -6°C° 0 mm 5 mps 754 mmHg 50%
    01:00 -6°C° 0 mm 5 mps 753 mmHg 53%
    02:00 -6°C° 0 mm 5 mps 753 mmHg 57%
    03:00 -5°C° 0 mm 4 mps 752 mmHg 60%
    04:00 -5°C° 0 mm 4 mps 752 mmHg 63%
    05:00 -4°C° 0 mm 4 mps 751 mmHg 66%
    06:00 -4°C° 0 mm 4 mps 751 mmHg 70%
    07:00 -4°C° 0.1 mm 4 mps 750 mmHg 71%
    08:00 -4°C° 0.1 mm 4 mps 750 mmHg 73%
    09:00 -4°C° 0.1 mm 4 mps 749 mmHg 75%
    10:00 -4°C° 0.2 mm 4 mps 749 mmHg 77%
    11:00 -4°C° 0.2 mm 4 mps 748 mmHg 78%
    12:00 -3°C° 0.2 mm 4 mps 748 mmHg 80%
    13:00 -3°C° 0.1 mm 4 mps 747 mmHg 78%
    14:00 -3°C° 0.1 mm 4 mps 746 mmHg 77%
    15:00 -3°C° 0.1 mm 4 mps 746 mmHg 76%
    16:00 -3°C° 0 mm 4 mps 745 mmHg 77%
    17:00 -3°C° 0 mm 4 mps 745 mmHg 79%
    18:00 -4°C° 0 mm 5 mps 744 mmHg 80%
    19:00 -3°C° 0.1 mm 4 mps 743 mmHg 83%
    20:00 -3°C° 0.1 mm 4 mps 743 mmHg 85%
    21:00 -3°C° 0.1 mm 4 mps 742 mmHg 88%
    22:00 -3°C° 0.2 mm 4 mps 742 mmHg 89%
    23:00 -3°C° 0.2 mm 4 mps 741 mmHg 90%

    Tomorrow, 18 November, Sunday

    Time Temperature Precipitation Wind Pressure Humidity
    00:00 -4°C° 0.2 mm 4 mps 741 mmHg 91%
    01:00 -4°C° 0.4 mm 4 mps 740 mmHg 91%
    02:00 -4°C° 0.4 mm 4 mps 740 mmHg 92%
    03:00 -4°C° 0.4 mm 4 mps 740 mmHg 92%
    04:00 -4°C° 0.3 mm 4 mps 740 mmHg 92%
    05:00 -4°C° 0.3 mm 4 mps 740 mmHg 92%
    06:00 -4°C° 0.3 mm 4 mps 739 mmHg 92%
    07:00 -4°C° 0.1 mm 4 mps 739 mmHg 92%
    08:00 -4°C° 0.1 mm 3 mps 740 mmHg 91%
    09:00 -4°C° 0.1 mm 3 mps 740 mmHg 91%
    10:00 -2°C° 0.1 mm 3 mps 740 mmHg 91%
    11:00 -2°C° 0.1 mm 3 mps 740 mmHg 90%
    12:00 -2°C° 0.1 mm 3 mps 740 mmHg 90%
    13:00 -2°C° 0 mm 3 mps 741 mmHg 91%
    14:00 -2°C° 0 mm 3 mps 741 mmHg 91%
    15:00 -2°C° 0 mm 2 mps 741 mmHg 92%
    16:00 -2°C° 0 mm 2 mps 742 mmHg 93%
    17:00 -2°C° 0 mm 2 mps 742 mmHg 94%
    18:00 -2°C° 0 mm 2 mps 742 mmHg 95%
    19:00 -2°C° 0 mm 2 mps 742 mmHg 95%
    20:00 -2°C° 0 mm 2 mps 743 mmHg 96%
    21:00 -2°C° 0 mm 2 mps 743 mmHg 96%
    22:00 -2°C° 0 mm 2 mps 743 mmHg 97%
    23:00 -2°C° 0 mm 2 mps 744 mmHg 97%

    Day after tomorrow, 19 November, Monday

    Time Temperature Precipitation Wind Pressure Humidity
    00:00 -2°C° 0 mm 2 mps 744 mmHg 97%
    01:00 0°C° 0.1 mm 1 mps 744 mmHg 97%
    02:00 0°C° 0.1 mm 1 mps 745 mmHg 97%
    03:00 0°C° 0.1 mm 1 mps 745 mmHg 97%
    04:00 0°C° 0.1 mm 1 mps 745 mmHg 97%
    05:00 0°C° 0.1 mm 1 mps 746 mmHg 97%
    06:00 -1°C° 0.1 mm 1 mps 746 mmHg 96%
    07:00 -1°C° 0 mm 1 mps 746 mmHg 96%
    08:00 -1°C° 0 mm 1 mps 747 mmHg 96%
    09:00 0°C° 0 mm 1 mps 747 mmHg 95%
    10:00 0°C° 0 mm 1 mps 748 mmHg 94%
    11:00 0°C° 0 mm 1 mps 748 mmHg 93%
    12:00 +1°C° 0 mm 1 mps 749 mmHg 92%
    13:00 +1°C° 0 mm 1 mps 749 mmHg 93%
    14:00 0°C° 0 mm 1 mps 749 mmHg 94%
    15:00 0°C° 0 mm 1 mps 750 mmHg 94%
    16:00 -1°C° 0 mm 1 mps 750 mmHg 95%
    17:00 -1°C° 0 mm 1 mps 750 mmHg 95%
    18:00 -2°C° 0 mm 1 mps 750 mmHg 95%
    19:00 -2°C° 0 mm 1 mps 750 mmHg 95%
    20:00 -2°C° 0 mm 1 mps 750 mmHg 95%
    21:00 -2°C° 0 mm 1 mps 750 mmHg 95%
    22:00 -2°C° 0 mm 1 mps 750 mmHg 96%
    23:00 -2°C° 0 mm 1 mps 751 mmHg 96%

    20 November, Tuesday

    Time Temperature Precipitation Wind Pressure Humidity
    00:00 -2°C° 0 mm 1 mps 751 mmHg 96%
    01:00 -2°C° 0 mm 1 mps 751 mmHg 96%
    02:00 -2°C° 0 mm 1 mps 751 mmHg 96%
    03:00 -2°C° 0 mm 1 mps 751 mmHg 96%
    04:00 -2°C° 0 mm 1 mps 751 mmHg 96%
    05:00 -2°C° 0 mm 1 mps 750 mmHg 97%
    06:00 -2°C° 0 mm 1 mps 750 mmHg 97%
    07:00 -2°C° 0 mm 1 mps 750 mmHg 96%
    08:00 -1°C° 0 mm 1 mps 750 mmHg 96%
    09:00 -1°C° 0 mm 1 mps 750 mmHg 96%
    10:00 -3°C° 0 mm 2 mps 749 mmHg 95%
    11:00 -2°C° 0 mm 2 mps 749 mmHg 93%
    12:00 -2°C° 0 mm 2 mps 749 mmHg 92%
    13:00 -2°C° 0 mm 2 mps 748 mmHg 92%
    14:00 -2°C° 0 mm 2 mps 748 mmHg 93%
    15:00 -4°C° 0 mm 3 mps 748 mmHg 93%
    16:00 -3°C° 0 mm 2 mps 747 mmHg 93%
    17:00 -3°C° 0 mm 2 mps 747 mmHg 93%
    18:00 -3°C° 0 mm 2 mps 746 mmHg 93%
    19:00 -4°C° 0 mm 2 mps 746 mmHg 94%
    20:00 -4°C° 0 mm 2 mps 746 mmHg 94%
    21:00 -6°C° 0 mm 3 mps 745 mmHg 95%
    22:00 -6°C° 0 mm 3 mps 745 mmHg 95%
    23:00 -6°C° 0 mm 3 mps 744 mmHg 96%

    21 November, Wednesday

    Time Temperature Precipitation Wind Pressure Humidity
    00:00 -5°C° 0 mm 2 mps 744 mmHg 96%
    01:00 -6°C° 0 mm 3 mps 743 mmHg 96%
    02:00 -6°C° 0 mm 3 mps 743 mmHg 95%
    03:00 -6°C° 0 mm 3 mps 743 mmHg 94%
    04:00 -6°C° 0 mm 3 mps 742 mmHg 94%
    05:00 -5°C° 0 mm 2 mps 742 mmHg 93%
    06:00 -5°C° 0 mm 2 mps 741 mmHg 93%
    07:00 -6°C° 0 mm 3 mps 741 mmHg 92%
    08:00 -6°C° 0 mm 3 mps 741 mmHg 92%
    09:00 -6°C° 0 mm 3 mps 740 mmHg 91%
    10:00 -5°C° 0 mm 3 mps 740 mmHg 90%
    11:00 -5°C° 0 mm 3 mps 740 mmHg 89%
    12:00 -4°C° 0 mm 3 mps 739 mmHg 88%
    13:00 -4°C° 0.1 mm 3 mps 739 mmHg 88%
    14:00 -4°C° 0.1 mm 3 mps 739 mmHg 88%
    15:00 -4°C° 0.1 mm 3 mps 739 mmHg 88%
    16:00 -5°C° 0.1 mm 3 mps 739 mmHg 88%
    17:00 -5°C° 0.1 mm 4 mps 739 mmHg 88%
    18:00 -5°C° 0.1 mm 4 mps 739 mmHg 88%
    19:00 -7°C° 0 mm 4 mps 738 mmHg 84%
    20:00 -8°C° 0 mm 4 mps 738 mmHg 80%
    21:00 -9°C° 0 mm 4 mps 738 mmHg 76%
    22:00 -9°C° 0 mm 4 mps 738 mmHg 77%
    23:00 -9°C° 0 mm 4 mps 738 mmHg 78%

    22 November, Thursday

    Time Temperature Precipitation Wind Pressure Humidity
    00:00 -9°C° 0 mm 4 mps 738 mmHg 79%
    01:00 -9°C° 0 mm 4 mps 738 mmHg 82%
    02:00 -10°C° 0 mm 4 mps 738 mmHg 86%
    03:00 -10°C° 0 mm 4 mps 738 mmHg 89%
    04:00 -9°C° 0 mm 3 mps 738 mmHg 91%
    05:00 -9°C° 0 mm 3 mps 738 mmHg 92%
    06:00 -9°C° 0 mm 2 mps 737 mmHg 94%
    07:00 -9°C° 0 mm 2 mps 737 mmHg 94%
    08:00 -9°C° 0 mm 3 mps 737 mmHg 93%
    09:00 -9°C° 0 mm 3 mps 737 mmHg 93%
    10:00 -9°C° 0 mm 3 mps 736 mmHg 91%
    11:00 -9°C° 0 mm 4 mps 736 mmHg 89%
    12:00 -8°C° 0 mm 4 mps 735 mmHg 87%
    13:00 -8°C° 0.1 mm 4 mps 735 mmHg 88%
    14:00 -8°C° 0.1 mm 4 mps 734 mmHg 88%
    15:00 -8°C° 0.1 mm 4 mps 734 mmHg 89%
    16:00 -8°C° 0.4 mm 4 mps 733 mmHg 90%
    17:00 -7°C° 0.4 mm 3 mps 733 mmHg 92%
    18:00 -6°C° 0.4 mm 3 mps 733 mmHg 93%
    19:00 -8°C° 0.2 mm 4 mps 734 mmHg 88%
    20:00 -10°C° 0.2 mm 5 mps 734 mmHg 83%
    21:00 -10°C° 0.2 mm 6 mps 735 mmHg 78%
    22:00 -11°C° 0 mm 6 mps 735 mmHg 81%
    23:00 -12°C° 0 mm 5 mps 736 mmHg 85%
    Show more